sat.trackr.live / text

‹ back to catalog

HJS-9C

NORAD 68833 · 2026-091C

PAYLOAD ACTIVE UNKNOWN

§ Identity

Operator
Country
PRC
Launch date
2026-04-24
Launch site
XICLF
Launch vehicle
Mass (kg)
RCS (m²)

External: N2YO · Heavens-Above · Gunter

§ Orbital elements

Epoch: 2026-05-11T14:54:14.200416Z

Period
94.80 min
Inclination
55.0031°
Eccentricity
0.0010473
Mean motion
15.18972133 rev/d
Perigee alt
501.7 km
Apogee alt
516.2 km
Semi-major
6,887.1 km
B*
1.0239e-4
RAAN
181.4760°
Arg perigee
338.0609°
Mean anomaly
21.9961°
Rev number
264

§ Raw data

HJS-9C1 68833U 26091C   26131.62099769  .00001851  00000+0  10239-3 0  99992 68833  55.0031 181.4760 0010473 338.0609  21.9961 15.18972133  2645

JSON: /api/v1/satellites/68833 · /tle

For live sub-satellite position, see the globe view (requires WebGL).

§ Visibility from observer

Set your observer location to see the next 7 days of passes ≥ 10°. The values pass through the URL so the page stays shareable.

No JS? Fill the form by hand. The geolocation button needs JavaScript.